Location: Nag� el Ma?a??a
(24.0667°N, 32.8833°E)
Time: 20:01:13
(UTC+00:00)

Palapa B4 Rocket - Visible Passes

Search period start: 16 January 2022 00:00
Search period end: 26 January 2022 00:00
Orbit: 502 x 2695 km, 19.7° (Epoch: 15 January)

Date Brightness Start Highest point End Pass type
(mag) Time Alt. Az. Time Alt. Az. Time Alt. Az.
16 Jan 7.6 16:04:08 10° WSW 16:16:50 28° SSW 16:29:02 10° SSE visible
17 Jan 7.6 15:38:34 10° WSW 15:51:10 29° SSW 16:03:52 10° SSE visible
17 Jan 7.8 17:57:07 10° SW 18:01:08 11° SSW 18:04:59 10° SSW visible
18 Jan 7.9 17:30:07 10° SW 17:35:41 12° SSW 17:41:01 10° S visible
19 Jan 7.9 17:03:40 10° SW 17:10:10 13° SSW 17:16:31 10° S visible
20 Jan 7.9 16:37:35 10° SW 16:44:38 14° SSW 16:51:38 10° S visible
21 Jan 7.9 16:11:48 10° SW 16:19:04 14° SSW 16:26:30 10° S visible
22 Jan 8.0 15:46:19 10° SW 15:53:31 15° SSW 16:01:05 10° S visible
25 Jan 5.0 03:59:15 10° SW 04:02:10 20° SSE 04:04:59 10° ESE visible
